contact:dominique.lefevre@mio.osupytheas.fr, maurice.libes@osupytheas.fr, didier.mallarino@osupytheas.fr
Project:EMSO http://www.emso-fr.org/EMSO-France
Depth: 2436.0 m
Title:EMSO Ligure Ouest : Data MII capteur CSTAR
DateTime,Latitude,Longitude,Instrument_Serial,Reference_Counts,Signal_Counts,Corrected_Signal_raw_counts,Calculated_Beam_c_inverse_meters,Internal_thermistor_counts
DateTime,Latitude,Longitude,Instrument_Serial,Reference_Counts,Signal_Counts,Corrected_Signal_raw_counts,Calculated_Beam_c_inverse_meters,Internal_thermistor_counts
2023-04-05T00:02:26,42.805,6.029,CST-1368DR,4332,4685,11486,01.229,551
2023-04-05T00:05:27,42.805,6.029,CST-1368DR,4332,4709,11544,01.209,551
2023-04-05T00:08:29,42.805,6.029,CST-1368DR,4332,4686,11487,01.228,551
2023-04-05T00:11:31,42.805,6.029,CST-1368DR,4332,4700,11523,01.216,551
2023-04-05T00:14:32,42.805,6.029,CST-1368DR,4332,4701,11525,01.215,551
2023-04-05T00:17:34,42.805,6.029,CST-1368DR,4332,4695,11510,01.220,551
2023-04-05T00:20:35,42.805,6.029,CST-1368DR,4332,4694,11506,01.222,551
2023-04-05T00:23:37,42.805,6.029,CST-1368DR,4332,4700,11522,01.216,551
2023-04-05T00:26:38,42.805,6.029,CST-1368DR,4332,4686,11487,01.228,551
2023-04-05T00:29:40,42.805,6.029,CST-1368DR,4332,4694,11508,01.221,551
2023-04-05T00:32:42,42.805,6.029,CST-1368DR,4332,4695,11509,01.221,551
2023-04-05T00:35:43,42.805,6.029,CST-1368DR,4332,4690,11498,01.224,551
2023-04-05T00:38:45,42.805,6.029,CST-1368DR,4332,4700,11522,01.216,551
2023-04-05T00:41:46,42.805,6.029,CST-1368DR,4332,4687,11490,01.227,551
2023-04-05T00:44:48,42.805,6.029,CST-1368DR,4332,4696,11513,01.219,551
2023-04-05T00:47:49,42.805,6.029,CST-1368DR,4332,4690,11498,01.224,551
2023-04-05T00:50:51,42.805,6.029,CST-1368DR,4332,4689,11494,01.226,551
2023-04-05T00:53:53,42.805,6.029,CST-1368DR,4332,4688,11493,01.226,551
2023-04-05T00:56:54,42.805,6.029,CST-1368DR,4332,4689,11496,01.225,551
2023-04-05T00:59:56,42.805,6.029,CST-1368DR,4332,4696,11513,01.219,551
2023-04-05T01:02:57,42.805,6.029,CST-1368DR,4332,4693,11504,01.222,551
2023-04-05T01:05:59,42.805,6.029,CST-1368DR,4332,4692,11503,01.223,551
2023-04-05T01:09:01,42.805,6.029,CST-1368DR,4332,4696,11511,01.220,551
2023-04-05T01:12:02,42.805,6.029,CST-1368DR,4332,4704,11531,01.213,551
2023-04-05T01:15:04,42.805,6.029,CST-1368DR,4332,4693,11504,01.222,551
2023-04-05T01:18:05,42.805,6.029,CST-1368DR,4332,4689,11496,01.225,551
2023-04-05T01:21:07,42.805,6.029,CST-1368DR,4332,4703,11529,01.214,551
2023-04-05T01:24:08,42.805,6.029,CST-1368DR,4332,4698,11518,01.218,551
2023-04-05T01:27:10,42.805,6.029,CST-1368DR,4332,4694,11506,01.222,551
2023-04-05T01:30:12,42.805,6.029,CST-1368DR,4332,4691,11500,01.224,551
2023-04-05T01:33:13,42.805,6.029,CST-1368DR,4332,4697,11515,01.219,551
2023-04-05T01:36:15,42.805,6.029,CST-1368DR,4332,4697,11515,01.219,551
2023-04-05T01:39:16,42.805,6.029,CST-1368DR,4332,4695,11511,01.220,551
2023-04-05T01:42:18,42.805,6.029,CST-1368DR,4332,4701,11525,01.215,551
2023-04-05T01:45:19,42.805,6.029,CST-1368DR,4332,4698,11518,01.218,551
2023-04-05T01:48:21,42.805,6.029,CST-1368DR,4332,4690,11498,01.224,551
2023-04-05T01:51:23,42.805,6.029,CST-1368DR,4332,4693,11504,01.222,551
2023-04-05T01:54:24,42.805,6.029,CST-1368DR,4332,4696,11513,01.219,551
2023-04-05T01:57:26,42.805,6.029,CST-1368DR,4332,4694,11506,01.222,551
2023-04-05T02:00:27,42.805,6.029,CST-1368DR,4332,4696,11511,01.220,551
2023-04-05T02:03:29,42.805,6.029,CST-1368DR,4332,4696,11512,01.220,551
2023-04-05T02:06:31,42.805,6.029,CST-1368DR,4332,4694,11506,01.222,551
2023-04-05T02:09:32,42.805,6.029,CST-1368DR,4332,4694,11506,01.222,551
2023-04-05T02:12:34,42.805,6.029,CST-1368DR,4332,4696,11513,01.219,551
2023-04-05T02:15:35,42.805,6.029,CST-1368DR,4332,4705,11534,01.212,551
2023-04-05T02:18:37,42.805,6.029,CST-1368DR,4332,4706,11536,01.211,551
2023-04-05T02:21:38,42.805,6.029,CST-1368DR,4332,4707,11539,01.210,551
2023-04-05T02:24:40,42.805,6.029,CST-1368DR,4332,4702,11527,01.214,551
2023-04-05T02:27:42,42.805,6.029,CST-1368DR,4332,4702,11526,01.215,551
2023-04-05T02:30:43,42.805,6.029,CST-1368DR,4332,4704,11533,01.212,551
2023-04-05T02:33:45,42.805,6.029,CST-1368DR,4332,4706,11536,01.211,551
2023-04-05T02:36:46,42.805,6.029,CST-1368DR,4332,4706,11538,01.211,551
2023-04-05T02:39:48,42.805,6.029,CST-1368DR,4332,4709,11544,01.209,551
2023-04-05T02:42:49,42.805,6.029,CST-1368DR,4332,4699,11519,01.217,551
2023-04-05T02:45:51,42.805,6.029,CST-1368DR,4332,4713,11554,01.205,551
2023-04-05T02:48:53,42.805,6.029,CST-1368DR,4332,4712,11550,01.206,551
2023-04-05T02:51:54,42.805,6.029,CST-1368DR,4332,4707,11540,01.210,551
2023-04-05T02:54:56,42.805,6.029,CST-1368DR,4332,4713,11555,01.205,551
2023-04-05T02:57:57,42.805,6.029,CST-1368DR,4332,4712,11551,01.206,551
2023-04-05T03:00:59,42.805,6.029,CST-1368DR,4332,4716,11561,01.203,551
2023-04-05T03:04:01,42.805,6.029,CST-1368DR,4332,4710,11546,01.208,551
2023-04-05T03:07:02,42.805,6.029,CST-1368DR,4332,4710,11545,01.208,551
2023-04-05T03:10:04,42.805,6.029,CST-1368DR,4332,4717,11563,01.202,551
2023-04-05T03:13:05,42.805,6.029,CST-1368DR,4332,4713,11553,01.205,551
2023-04-05T03:16:07,42.805,6.029,CST-1368DR,4332,4716,11561,01.203,551
2023-04-05T03:19:08,42.805,6.029,CST-1368DR,4332,4713,11553,01.205,551
2023-04-05T03:22:10,42.805,6.029,CST-1368DR,4332,4717,11564,01.202,551
2023-04-05T03:25:11,42.805,6.029,CST-1368DR,4332,4715,11560,01.203,551
2023-04-05T03:28:13,42.805,6.029,CST-1368DR,4332,4711,11549,01.207,551
2023-04-05T03:31:15,42.805,6.029,CST-1368DR,4332,4707,11539,01.210,551
2023-04-05T03:34:16,42.805,6.029,CST-1368DR,4332,4716,11561,01.203,551
2023-04-05T03:37:18,42.805,6.029,CST-1368DR,4332,4714,11557,01.204,551
2023-04-05T03:40:19,42.805,6.029,CST-1368DR,4332,4718,11567,01.201,551
2023-04-05T03:43:21,42.805,6.029,CST-1368DR,4332,4707,11538,01.211,551
2023-04-05T03:46:23,42.805,6.029,CST-1368DR,4332,4707,11538,01.211,551
2023-04-05T03:49:24,42.805,6.029,CST-1368DR,4332,4712,11552,01.206,551
2023-04-05T03:52:26,42.805,6.029,CST-1368DR,4332,4713,11553,01.205,551
2023-04-05T03:55:27,42.805,6.029,CST-1368DR,4332,4713,11554,01.205,551
2023-04-05T03:58:29,42.805,6.029,CST-1368DR,4332,4707,11539,01.210,551
2023-04-05T04:01:30,42.805,6.029,CST-1368DR,4332,4709,11544,01.209,551
2023-04-05T04:04:32,42.805,6.029,CST-1368DR,4332,4701,11523,01.216,551
2023-04-05T04:07:34,42.805,6.029,CST-1368DR,4332,4709,11544,01.209,551
2023-04-05T04:10:35,42.805,6.029,CST-1368DR,4332,4715,11560,01.203,551
2023-04-05T04:13:37,42.805,6.029,CST-1368DR,4332,4714,11556,01.204,551
2023-04-05T04:16:38,42.805,6.029,CST-1368DR,4332,4704,11531,01.213,551
2023-04-05T04:19:40,42.805,6.029,CST-1368DR,4332,4698,11517,01.218,551
2023-04-05T04:22:41,42.805,6.029,CST-1368DR,4332,4707,11539,01.210,551
2023-04-05T04:25:43,42.805,6.029,CST-1368DR,4332,4707,11539,01.210,551
2023-04-05T04:28:45,42.805,6.029,CST-1368DR,4332,4705,11534,01.212,551
2023-04-05T04:31:46,42.805,6.029,CST-1368DR,4332,4705,11535,01.212,551
2023-04-05T04:34:48,42.805,6.029,CST-1368DR,4332,4701,11525,01.215,551
2023-04-05T04:37:49,42.805,6.029,CST-1368DR,4332,4700,11523,01.216,551
2023-04-05T04:40:51,42.805,6.029,CST-1368DR,4332,4710,11546,01.208,551
2023-04-05T04:43:53,42.805,6.029,CST-1368DR,4332,4709,11545,01.208,551
2023-04-05T04:46:54,42.805,6.029,CST-1368DR,4332,4708,11542,01.209,551
2023-04-05T04:49:56,42.805,6.029,CST-1368DR,4332,4709,11544,01.209,551
2023-04-05T04:52:57,42.805,6.029,CST-1368DR,4332,4713,11554,01.205,551
2023-04-05T04:55:59,42.805,6.029,CST-1368DR,4332,4704,11531,01.213,551
2023-04-05T04:59:00,42.805,6.029,CST-1368DR,4332,4712,11551,01.206,551
2023-04-05T05:02:02,42.805,6.029,CST-1368DR,4332,4710,11546,01.208,551
2023-04-05T05:05:04,42.805,6.029,CST-1368DR,4332,4711,11548,01.207,551
2023-04-05T05:08:05,42.805,6.029,CST-1368DR,4332,4712,11551,01.206,551
2023-04-05T05:11:07,42.805,6.029,CST-1368DR,4332,4702,11527,01.214,551
2023-04-05T05:14:08,42.805,6.029,CST-1368DR,4332,4710,11546,01.208,551
2023-04-05T05:17:10,42.805,6.029,CST-1368DR,4332,4712,11552,01.206,551
2023-04-05T05:20:11,42.805,6.029,CST-1368DR,4332,4709,11544,01.209,551
2023-04-05T05:23:13,42.805,6.029,CST-1368DR,4332,4715,11558,01.204,551
2023-04-05T05:26:15,42.805,6.029,CST-1368DR,4332,4709,11544,01.209,551
2023-04-05T05:29:16,42.805,6.029,CST-1368DR,4332,4713,11555,01.205,551
2023-04-05T05:32:18,42.805,6.029,CST-1368DR,4332,4712,11551,01.206,551
2023-04-05T05:35:19,42.805,6.029,CST-1368DR,4332,4708,11542,01.209,551
2023-04-05T05:38:21,42.805,6.029,CST-1368DR,4332,4713,11554,01.205,551
2023-04-05T05:41:22,42.805,6.029,CST-1368DR,4332,4713,11553,01.205,551
2023-04-05T05:44:24,42.805,6.029,CST-1368DR,4332,4714,11555,01.205,551
2023-04-05T05:47:26,42.805,6.029,CST-1368DR,4332,4710,11547,01.207,551
2023-04-05T05:50:27,42.805,6.029,CST-1368DR,4332,4709,11543,01.209,551
2023-04-05T05:53:29,42.805,6.029,CST-1368DR,4332,4706,11536,01.211,551
2023-04-05T05:56:30,42.805,6.029,CST-1368DR,4332,4711,11550,01.206,551
2023-04-05T05:59:32,42.805,6.029,CST-1368DR,4332,4703,11529,01.214,551
2023-04-05T06:02:34,42.805,6.029,CST-1368DR,4332,4712,11551,01.206,551
2023-04-05T06:05:35,42.805,6.029,CST-1368DR,4332,4711,11550,01.206,551
2023-04-05T06:08:37,42.805,6.029,CST-1368DR,4332,4710,11546,01.208,551
2023-04-05T06:11:38,42.805,6.029,CST-1368DR,4332,4706,11538,01.211,551
2023-04-05T06:14:40,42.805,6.029,CST-1368DR,4332,4709,11544,01.209,551
2023-04-05T06:17:41,42.805,6.029,CST-1368DR,4332,4707,11539,01.210,551
2023-04-05T06:20:43,42.805,6.029,CST-1368DR,4332,4713,11553,01.205,551
2023-04-05T06:23:45,42.805,6.029,CST-1368DR,4332,4714,11556,01.204,551
2023-04-05T06:26:46,42.805,6.029,CST-1368DR,4332,4713,11555,01.205,551
2023-04-05T06:29:48,42.805,6.029,CST-1368DR,4332,4719,11568,01.200,551
2023-04-05T06:32:49,42.805,6.029,CST-1368DR,4332,4715,11558,01.204,551
2023-04-05T06:35:51,42.805,6.029,CST-1368DR,4332,4703,11530,01.213,551
2023-04-05T06:38:52,42.805,6.029,CST-1368DR,4332,4717,11564,01.202,551
2023-04-05T06:41:54,42.805,6.029,CST-1368DR,4332,4710,11545,01.208,551
2023-04-05T06:44:55,42.805,6.029,CST-1368DR,4332,4712,11550,01.206,552
2023-04-05T06:47:57,42.805,6.029,CST-1368DR,4332,4715,11559,01.203,551
2023-04-05T06:50:59,42.805,6.029,CST-1368DR,4332,4702,11528,01.214,551
2023-04-05T06:54:00,42.805,6.029,CST-1368DR,4332,4717,11563,01.202,551
2023-04-05T06:57:02,42.805,6.029,CST-1368DR,4332,4708,11542,01.209,551
2023-04-05T07:00:03,42.805,6.029,CST-1368DR,4332,4698,11517,01.218,551
2023-04-05T07:03:05,42.805,6.029,CST-1368DR,4332,4707,11539,01.210,551
2023-04-05T07:06:06,42.805,6.029,CST-1368DR,4332,4703,11530,01.213,551
2023-04-05T07:09:08,42.805,6.029,CST-1368DR,4332,4704,11531,01.213,551
2023-04-05T07:12:10,42.805,6.029,CST-1368DR,4332,4707,11538,01.211,551
2023-04-05T07:15:11,42.805,6.029,CST-1368DR,4332,4704,11531,01.213,551
2023-04-05T07:18:13,42.805,6.029,CST-1368DR,4332,4707,11539,01.210,551
2023-04-05T07:21:14,42.805,6.029,CST-1368DR,4332,4713,11553,01.205,551
2023-04-05T07:24:16,42.805,6.029,CST-1368DR,4332,4719,11568,01.200,551
2023-04-05T07:27:17,42.805,6.029,CST-1368DR,4332,4702,11528,01.214,551
2023-04-05T07:30:19,42.805,6.029,CST-1368DR,4332,4715,11559,01.203,551
2023-04-05T07:33:21,42.805,6.029,CST-1368DR,4332,4702,11528,01.214,551
2023-04-05T07:36:22,42.805,6.029,CST-1368DR,4332,4720,11572,01.199,551
2023-04-05T07:39:24,42.805,6.029,CST-1368DR,4332,4709,11544,01.209,551
2023-04-05T07:42:25,42.805,6.029,CST-1368DR,4332,4715,11559,01.203,551
2023-04-05T07:45:27,42.805,6.029,CST-1368DR,4332,4715,11558,01.204,551
2023-04-05T07:48:29,42.805,6.029,CST-1368DR,4332,4715,11558,01.204,551
2023-04-05T07:51:30,42.805,6.029,CST-1368DR,4332,4714,11556,01.204,551
2023-04-05T07:54:32,42.805,6.029,CST-1368DR,4332,4715,11558,01.204,551
2023-04-05T07:57:33,42.805,6.029,CST-1368DR,4332,4711,11549,01.207,551
2023-04-05T08:00:35,42.805,6.029,CST-1368DR,4332,4712,11552,01.206,551
2023-04-05T08:03:36,42.805,6.029,CST-1368DR,4332,4718,11566,01.201,551
2023-04-05T08:06:38,42.805,6.029,CST-1368DR,4332,4713,11553,01.205,551
2023-04-05T08:09:40,42.805,6.029,CST-1368DR,4332,4712,11552,01.206,551
2023-04-05T08:12:41,42.805,6.029,CST-1368DR,4332,4715,11558,01.204,551
2023-04-05T08:15:43,42.805,6.029,CST-1368DR,4332,4710,11546,01.208,551
2023-04-05T08:18:44,42.805,6.029,CST-1368DR,4332,4711,11548,01.207,551
2023-04-05T08:21:46,42.805,6.029,CST-1368DR,4332,4703,11530,01.213,551
2023-04-05T08:24:47,42.805,6.029,CST-1368DR,4332,4713,11554,01.205,551
2023-04-05T08:27:49,42.805,6.029,CST-1368DR,4332,4702,11527,01.214,551
2023-04-05T08:30:51,42.805,6.029,CST-1368DR,4332,4701,11525,01.215,551
2023-04-05T08:33:52,42.805,6.029,CST-1368DR,4332,4702,11527,01.214,551
2023-04-05T08:36:54,42.805,6.029,CST-1368DR,4332,4717,11563,01.202,551
2023-04-05T08:39:55,42.805,6.029,CST-1368DR,4332,4711,11550,01.206,551
2023-04-05T08:42:57,42.805,6.029,CST-1368DR,4332,4713,11555,01.205,551
2023-04-05T08:45:59,42.805,6.029,CST-1368DR,4332,4713,11553,01.205,551
2023-04-05T08:49:00,42.805,6.029,CST-1368DR,4332,4710,11547,01.207,552
2023-04-05T08:52:02,42.805,6.029,CST-1368DR,4332,4715,11559,01.203,551
2023-04-05T08:55:03,42.805,6.029,CST-1368DR,4332,4708,11541,01.210,551
2023-04-05T08:58:05,42.805,6.029,CST-1368DR,4332,4721,11574,01.198,551
2023-04-05T09:01:06,42.805,6.029,CST-1368DR,4332,4699,11520,01.217,551
2023-04-05T09:04:08,42.805,6.029,CST-1368DR,4332,4709,11544,01.209,551
2023-04-05T09:07:10,42.805,6.029,CST-1368DR,4332,4702,11526,01.215,551
2023-04-05T09:10:11,42.805,6.029,CST-1368DR,4332,4696,11513,01.219,551
2023-04-05T09:13:13,42.805,6.029,CST-1368DR,4332,4709,11543,01.209,551
2023-04-05T09:16:14,42.805,6.029,CST-1368DR,4332,4710,11546,01.208,551
2023-04-05T09:19:16,42.805,6.029,CST-1368DR,4332,4707,11538,01.211,551
2023-04-05T09:22:17,42.805,6.029,CST-1368DR,4331,4704,11535,01.212,551
2023-04-05T09:25:19,42.805,6.029,CST-1368DR,4332,4713,11553,01.205,551
2023-04-05T09:28:21,42.805,6.029,CST-1368DR,4332,4713,11555,01.205,551
2023-04-05T09:31:22,42.805,6.029,CST-1368DR,4332,4713,11554,01.205,551
2023-04-05T09:34:24,42.805,6.029,CST-1368DR,4332,4712,11550,01.206,551
2023-04-05T09:37:25,42.805,6.029,CST-1368DR,4332,4716,11561,01.203,551
2023-04-05T09:40:27,42.805,6.029,CST-1368DR,4331,4703,11533,01.212,551
2023-04-05T09:43:29,42.805,6.029,CST-1368DR,4332,4706,11536,01.211,551
2023-04-05T09:46:30,42.805,6.029,CST-1368DR,4332,4712,11552,01.206,551
2023-04-05T09:49:32,42.805,6.029,CST-1368DR,4332,4712,11551,01.206,551
2023-04-05T09:52:33,42.805,6.029,CST-1368DR,4331,4710,11550,01.206,551
2023-04-05T09:55:35,42.805,6.029,CST-1368DR,4331,4706,11540,01.210,551
2023-04-05T09:58:36,42.805,6.029,CST-1368DR,4331,4701,11526,01.215,551
2023-04-05T10:01:38,42.805,6.029,CST-1368DR,4332,4710,11547,01.207,551
2023-04-05T10:04:40,42.805,6.029,CST-1368DR,4332,4709,11545,01.208,551
2023-04-05T10:07:41,42.805,6.029,CST-1368DR,4332,4716,11561,01.203,551
2023-04-05T10:10:43,42.805,6.029,CST-1368DR,4332,4717,11564,01.202,551
2023-04-05T10:13:44,42.805,6.029,CST-1368DR,4332,4709,11544,01.209,551
2023-04-05T10:16:46,42.805,6.029,CST-1368DR,4332,4718,11566,01.201,551
2023-04-05T10:19:47,42.805,6.029,CST-1368DR,4332,4712,11551,01.206,551
2023-04-05T10:22:49,42.805,6.029,CST-1368DR,4332,4717,11564,01.202,551
2023-04-05T10:25:51,42.805,6.029,CST-1368DR,4332,4713,11553,01.205,551
2023-04-05T10:28:52,42.805,6.029,CST-1368DR,4332,4712,11552,01.206,551
2023-04-05T10:31:57,42.805,6.029,CST-1368DR,4332,4722,11575,01.198,551
2023-04-05T10:34:58,42.805,6.029,CST-1368DR,4332,4719,11569,01.200,551
2023-04-05T10:38:00,42.805,6.029,CST-1368DR,4331,4713,11556,01.204,551
2023-04-05T10:41:02,42.805,6.029,CST-1368DR,4332,4719,11568,01.200,551
2023-04-05T10:44:03,42.805,6.029,CST-1368DR,4332,4720,11571,01.199,551
2023-04-05T10:47:05,42.805,6.029,CST-1368DR,4332,4714,11555,01.205,551
2023-04-05T10:50:06,42.805,6.029,CST-1368DR,4332,4718,11567,01.201,551
2023-04-05T10:53:08,42.805,6.029,CST-1368DR,4332,4714,11557,01.204,551
2023-04-05T10:56:09,42.805,6.029,CST-1368DR,4332,4716,11561,01.203,551
2023-04-05T10:59:11,42.805,6.029,CST-1368DR,4332,4717,11564,01.202,551
2023-04-05T11:02:13,42.805,6.029,CST-1368DR,4331,4711,11552,01.206,551
2023-04-05T11:05:14,42.805,6.029,CST-1368DR,4331,4712,11553,01.205,551
2023-04-05T11:08:16,42.805,6.029,CST-1368DR,4331,4716,11563,01.202,551
2023-04-05T11:11:17,42.805,6.029,CST-1368DR,4332,4716,11562,01.202,551
2023-04-05T11:14:19,42.805,6.029,CST-1368DR,4331,4718,11569,01.200,551
2023-04-05T11:17:20,42.805,6.029,CST-1368DR,4332,4716,11561,01.203,551
2023-04-05T11:20:22,42.805,6.029,CST-1368DR,4331,4715,11560,01.203,551
2023-04-05T11:23:24,42.805,6.029,CST-1368DR,4331,4709,11547,01.207,551
2023-04-05T11:26:25,42.805,6.029,CST-1368DR,4331,4705,11536,01.211,551
2023-04-05T11:29:27,42.805,6.029,CST-1368DR,4331,4699,11523,01.216,551
2023-04-05T11:32:28,42.805,6.029,CST-1368DR,4332,4710,11547,01.207,551
2023-04-05T11:35:30,42.805,6.029,CST-1368DR,4332,4714,11556,01.204,551
2023-04-05T11:38:32,42.805,6.029,CST-1368DR,4331,4719,11572,01.199,551
2023-04-05T11:41:33,42.805,6.029,CST-1368DR,4332,4714,11557,01.204,551
2023-04-05T11:44:35,42.805,6.029,CST-1368DR,4332,4707,11539,01.210,551
2023-04-05T11:47:36,42.805,6.029,CST-1368DR,4332,4716,11560,01.203,551
2023-04-05T11:50:38,42.805,6.029,CST-1368DR,4331,4710,11549,01.207,551
2023-04-05T11:53:39,42.805,6.029,CST-1368DR,4332,4713,11553,01.205,551
2023-04-05T11:56:41,42.805,6.029,CST-1368DR,4331,4707,11542,01.209,551
2023-04-05T11:59:43,42.805,6.029,CST-1368DR,4331,4699,11523,01.216,552
2023-04-05T12:02:44,42.805,6.029,CST-1368DR,4331,4706,11539,01.210,551
2023-04-05T12:05:46,42.805,6.029,CST-1368DR,4331,4707,11542,01.209,551
2023-04-05T12:08:47,42.805,6.029,CST-1368DR,4332,4713,11554,01.205,551
2023-04-05T12:11:49,42.805,6.029,CST-1368DR,4331,4709,11547,01.207,551
2023-04-05T12:14:50,42.805,6.029,CST-1368DR,4331,4713,11555,01.205,551
2023-04-05T12:17:52,42.805,6.029,CST-1368DR,4331,4707,11543,01.209,551
2023-04-05T12:20:54,42.805,6.029,CST-1368DR,4331,4715,11562,01.202,551
2023-04-05T12:23:55,42.805,6.029,CST-1368DR,4331,4715,11562,01.202,551
2023-04-05T12:26:57,42.805,6.029,CST-1368DR,4331,4712,11553,01.205,551
2023-04-05T12:29:58,42.805,6.029,CST-1368DR,4331,4715,11562,01.202,551
2023-04-05T12:33:00,42.805,6.029,CST-1368DR,4331,4715,11562,01.202,551
2023-04-05T12:36:01,42.805,6.029,CST-1368DR,4331,4709,11547,01.207,551
2023-04-05T12:39:03,42.805,6.029,CST-1368DR,4332,4717,11563,01.202,551
2023-04-05T12:42:05,42.805,6.029,CST-1368DR,4331,4712,11554,01.205,551
2023-04-05T12:45:06,42.805,6.029,CST-1368DR,4331,4710,11550,01.206,551
2023-04-05T12:48:08,42.805,6.029,CST-1368DR,4331,4713,11556,01.204,551
2023-04-05T12:51:09,42.805,6.029,CST-1368DR,4331,4711,11550,01.206,551
2023-04-05T12:54:11,42.805,6.029,CST-1368DR,4331,4712,11554,01.205,551
2023-04-05T12:57:13,42.805,6.029,CST-1368DR,4331,4712,11554,01.205,551
2023-04-05T13:00:14,42.805,6.029,CST-1368DR,4331,4710,11548,01.207,551
2023-04-05T13:03:16,42.805,6.029,CST-1368DR,4331,4714,11558,01.204,551
2023-04-05T13:06:17,42.805,6.029,CST-1368DR,4331,4711,11550,01.206,551
2023-04-05T13:09:19,42.805,6.029,CST-1368DR,4331,4711,11550,01.206,551
2023-04-05T13:12:20,42.805,6.029,CST-1368DR,4331,4710,11550,01.206,551
2023-04-05T13:15:22,42.805,6.029,CST-1368DR,4331,4714,11559,01.203,551
2023-04-05T13:18:24,42.805,6.029,CST-1368DR,4331,4709,11546,01.208,551
2023-04-05T13:21:25,42.805,6.029,CST-1368DR,4331,4715,11560,01.203,551
2023-04-05T13:24:27,42.805,6.029,CST-1368DR,4331,4715,11562,01.202,551
2023-04-05T13:27:28,42.805,6.029,CST-1368DR,4331,4714,11558,01.204,551
2023-04-05T13:30:30,42.805,6.029,CST-1368DR,4331,4716,11563,01.202,551
2023-04-05T13:33:31,42.805,6.029,CST-1368DR,4331,4715,11562,01.202,551
2023-04-05T13:36:33,42.805,6.029,CST-1368DR,4331,4716,11564,01.202,551
2023-04-05T13:39:35,42.805,6.029,CST-1368DR,4331,4715,11561,01.203,551
2023-04-05T13:42:36,42.805,6.029,CST-1368DR,4331,4715,11562,01.202,551
2023-04-05T13:45:38,42.805,6.029,CST-1368DR,4332,4715,11558,01.204,551
2023-04-05T13:48:39,42.805,6.029,CST-1368DR,4331,4713,11555,01.205,551
2023-04-05T13:51:41,42.805,6.029,CST-1368DR,4331,4713,11556,01.204,551
2023-04-05T13:54:43,42.805,6.029,CST-1368DR,4331,4715,11561,01.203,551
2023-04-05T13:57:44,42.805,6.029,CST-1368DR,4331,4715,11562,01.202,551
2023-04-05T14:00:46,42.805,6.029,CST-1368DR,4331,4716,11563,01.202,551
2023-04-05T14:03:47,42.805,6.029,CST-1368DR,4331,4715,11560,01.203,551
2023-04-05T14:06:49,42.805,6.029,CST-1368DR,4331,4714,11558,01.204,551
2023-04-05T14:09:50,42.805,6.029,CST-1368DR,4331,4720,11574,01.198,551
2023-04-05T14:12:52,42.805,6.029,CST-1368DR,4331,4722,11579,01.196,551
2023-04-05T14:15:54,42.805,6.029,CST-1368DR,4331,4726,11589,01.193,551
2023-04-05T14:18:55,42.805,6.029,CST-1368DR,4332,4729,11593,01.192,551
2023-04-05T14:21:57,42.805,6.029,CST-1368DR,4332,4728,11590,01.193,551
2023-04-05T14:24:58,42.805,6.029,CST-1368DR,4331,4725,11586,01.194,551
2023-04-05T14:28:00,42.805,6.029,CST-1368DR,4332,4725,11582,01.195,551
2023-04-05T14:31:02,42.805,6.029,CST-1368DR,4331,4726,11588,01.193,551
2023-04-05T14:34:04,42.805,6.029,CST-1368DR,4332,4729,11592,01.192,551
2023-04-05T14:37:05,42.805,6.029,CST-1368DR,4331,4724,11583,01.195,551
2023-04-05T14:40:07,42.805,6.029,CST-1368DR,4331,4723,11581,01.196,551
2023-04-05T14:43:08,42.805,6.029,CST-1368DR,4331,4722,11579,01.196,551
2023-04-05T14:46:10,42.805,6.029,CST-1368DR,4331,4722,11579,01.196,551
2023-04-05T14:49:12,42.805,6.029,CST-1368DR,4331,4723,11580,01.196,551
2023-04-05T14:52:13,42.805,6.029,CST-1368DR,4331,4718,11569,01.200,551
2023-04-05T14:55:15,42.805,6.029,CST-1368DR,4331,4719,11572,01.199,551
2023-04-05T14:58:16,42.805,6.029,CST-1368DR,4331,4721,11575,01.198,551
2023-04-05T15:01:18,42.805,6.029,CST-1368DR,4331,4723,11580,01.196,551
2023-04-05T15:04:20,42.805,6.029,CST-1368DR,4331,4723,11581,01.196,551
2023-04-05T15:07:21,42.805,6.029,CST-1368DR,4331,4724,11584,01.195,551
2023-04-05T15:10:23,42.805,6.029,CST-1368DR,4331,4722,11578,01.197,551
2023-04-05T15:13:24,42.805,6.029,CST-1368DR,4331,4718,11569,01.200,551
2023-04-05T15:16:26,42.805,6.029,CST-1368DR,4331,4724,11583,01.195,551
2023-04-05T15:19:27,42.805,6.029,CST-1368DR,4331,4727,11590,01.193,551
2023-04-05T15:22:29,42.805,6.029,CST-1368DR,4331,4722,11578,01.197,551
2023-04-05T15:25:31,42.805,6.029,CST-1368DR,4331,4724,11584,01.195,551
2023-04-05T15:28:32,42.805,6.029,CST-1368DR,4331,4726,11589,01.193,551
2023-04-05T15:31:34,42.805,6.029,CST-1368DR,4331,4722,11579,01.196,551
2023-04-05T15:34:35,42.805,6.029,CST-1368DR,4331,4723,11580,01.196,551
2023-04-05T15:37:37,42.805,6.029,CST-1368DR,4331,4724,11584,01.195,551
2023-04-05T15:40:39,42.805,6.029,CST-1368DR,4331,4726,11588,01.193,551
2023-04-05T15:43:40,42.805,6.029,CST-1368DR,4331,4729,11596,01.191,551
2023-04-05T15:46:42,42.805,6.029,CST-1368DR,4331,4726,11587,01.194,551
2023-04-05T15:49:43,42.805,6.029,CST-1368DR,4331,4724,11584,01.195,551
2023-04-05T15:52:45,42.805,6.029,CST-1368DR,4331,4727,11590,01.193,551
2023-04-05T15:55:46,42.805,6.029,CST-1368DR,4331,4726,11589,01.193,551
2023-04-05T15:58:48,42.805,6.029,CST-1368DR,4331,4726,11588,01.193,551
2023-04-05T16:01:50,42.805,6.029,CST-1368DR,4331,4726,11588,01.193,551
2023-04-05T16:04:51,42.805,6.029,CST-1368DR,4331,4724,11584,01.195,551
2023-04-05T16:07:53,42.805,6.029,CST-1368DR,4331,4725,11585,01.194,551
2023-04-05T16:10:54,42.805,6.029,CST-1368DR,4331,4723,11581,01.196,551
2023-04-05T16:13:56,42.805,6.029,CST-1368DR,4331,4723,11580,01.196,551
2023-04-05T16:16:57,42.805,6.029,CST-1368DR,4331,4720,11574,01.198,551
2023-04-05T16:19:59,42.805,6.029,CST-1368DR,4331,4723,11582,01.195,551
2023-04-05T16:23:01,42.805,6.029,CST-1368DR,4331,4733,11606,01.187,551
2023-04-05T16:26:02,42.805,6.029,CST-1368DR,4331,4732,11602,01.188,551
2023-04-05T16:29:04,42.805,6.029,CST-1368DR,4331,4725,11585,01.194,551
2023-04-05T16:32:05,42.805,6.029,CST-1368DR,4331,4722,11579,01.196,551
2023-04-05T16:35:07,42.805,6.029,CST-1368DR,4331,4718,11569,01.200,551
2023-04-05T16:38:08,42.805,6.029,CST-1368DR,4331,4722,11579,01.196,551